Temperature
18 18 18 18 18 18 18 18 18 18 18 18 18 18 18 18 18 18 18 17 17 17 17 17 17 17 17 17 17 17 17 17 16 16 16 16 16 16 16 16 16 16 16
18 18 18 18 18 18 18 18 18 18 18 18 18 18 18 18 18 18 18 18 17 17 17 17 17 17 17 17 17 17 17 17 17 17 16 16 16 16 16 16 16 16 16
18 18 18 18 18 18 18 18 18 18 18 18 18 18 18 18 18 18 18 17 17 17 17 17 17 17 17 17 17 17 17 17 17 16 16 16 16 16 16 16 16 16 16
18 18 18 18 18 18 18 18 18 18 18 18 18 18 18 18 18 18 17 17 17 17 17 17 17 17 17 17 17 17 17 17 16 16 16 16 16 16 16 16 16 16 16
18 18 18 18 18 18 18 18 18 18 18 18 18 18 18 18 18 18 17 17 17 17 17 17 17 17 17 17 17 17 17 16 16 16 16 16 16 16 16 16 16 16 16
18 18 18 18 18 18 18 18 18 18 18 18 18 18 18 18 18 18 17 17 17 17 17 17 17 17 17 17 17 17 17 16 16 16 16 16 16 16 16 16 16 16 16
18 18 18 18 18 18 18 18 18 18 17 17 18 18 18 18 17 17 17 17 17 17 17 17 17 17 17 17 17 17 16 16 16 16 16 16 16 16 16 16 15 15 16
18 18 18 18 18 18 18 18 17 17 17 17 17 17 17 17 17 17 17 17 17 17 17 17 17 17 17 17 17 16 16 16 16 16 16 16 16 16 16 15 15 15 15
18 18 18 18 18 18 18 17 17 17 17 17 17 17 17 17 17 17 17 17 17 17 17 17 17 17 17 16 16 16 16 16 16 16 16 15 15 15 15 15 15 15 15
18 18 18 18 18 18 18 17 17 17 17 17 17 17 17 17 16 16 16 16 16 17 17 17 17 17 16 16 16 16 16 16 16 16 15 15 15 15 15 15 15 15 15
18 18 18 18 18 18 18 17 17 17 17 17 17 17 17 17 16 16 16 16 16 16 16 16 16 16 16 16 16 16 16 16 15 15 15 15 15 15 15 15 15 15 15
18 18 18 18 18 18 17 17 17 17 17 17 17 17 17 16 16 16 16 16 16 16 16 16 16 16 16 16 15 15 15 15 15 15 15 15 15 15 15 15 15 15 14
18 18 18 18 18 18 17 17 17 17 17 17 17 17 17 16 16 16 16 15 15 16 16 16 16 16 16 15 15 15 15 15 15 15 15 15 15 15 15 15 15 14 14
18 18 18 18 18 18 17 17 17 17 17 17 17 16 16 16 16 16 16 15 15 15 15 16 16 15 15 15 15 15 15 15 15 15 15 14 14 14 14 14 14 14 14
18 18 18 18 18 17 17 17 17 17 17 17 16 16 16 16 16 16 16 15 15 15 15 15 15 15 15 15 15 15 15 15 15 15 14 14 14 14 14 14 14 14 14
18 18 18 18 17 17 17 17 17 17 17 17 16 16 16 16 16 16 15 15 15 15 14 14 15 15 15 15 15 15 15 15 15 14 14 14 14 14 14 14 14 14 14
18 18 17 17 17 17 17 17 17 17 17 16 16 16 16 16 16 15 15 15 15 15 14 15 14 15 15 15 14 14 14 14 14 14 14 14 14 14 14 14 14 14 14
18 18 17 17 17 17 17 17 17 16 16 16 16 16 16 16 16 15 15 15 15 15 14 14 14 14 14 14 14 14 14 14 14 14 14 14 14 14 14 13 13 13 13
18 17 17 17 17 17 17 17 16 16 16 16 16 16 16 16 15 15 15 15 15 15 14 14 14 14 14 14 14 14 14 14 14 14 13 13 13 13 13 13 13 13 13
18 17 17 17 17 17 17 16 16 16 16 16 16 16 16 15 15 15 15 15 15 14 14 14 14 14 14 14 14 13 13 13 13 13 13 13 13 13 13 13 13 13 13
17 17 17 17 17 16 16 16 16 16 16 16 16 15 15 15 15 15 15 15 14 14 14 14 14 14 14 14 13 13 13 13 13 13 13 13 13 13 13 12 12 12 12
17 17 17 17 16 16 16 16 16 16 16 15 15 15 15 15 15 15 14 14 14 14 14 14 14 13 13 13 13 13 12 12 12 12 12 12 12 12 12 12 12 12 12
17 17 17 16 16 16 16 16 16 15 15 15 15 15 15 15 14 14 14 14 14 14 13 13 13 13 13 13 13 13 12 12 12 12 12 12 12 12 12 12 12 12 12
17 17 17 16 16 16 16 16 15 15 15 15 15 15 14 14 14 14 14 14 14 14 13 13 13 13 13 12 12 12 12 12 12 12 11 11 11 12 11 11 11 11 11
17 17 16 16 16 16 16 15 15 15 15 15 15 14 14 14 14 14 14 14 14 14 13 13 13 13 13 12 12 12 12 11 11 11 11 11 11 11 11 11 11 11 11
17 16 16 16 16 16 15 15 15 15 15 15 14 14 14 14 14 14 13 13 13 13 13 13 13 13 13 12 12 12 11 11 11 11 11 11 11 11 10 11 10 10 10
Wind_Speed
3 2 2 3 3 3 3 2 2 2 2 2 1 1 1 1 2 2 3 5 5 5 5 6 6 7 7 7 7 7 7 7 8 7 7 7 7 7 8 9 9 10 11
2 2 2 2 2 2 2 2 2 2 1 2 1 0 1 1 1 2 2 3 4 5 6 6 6 6 7 7 7 8 8 8 8 8 8 8 8 8 8 8 9 9 10
2 2 2 2 2 2 2 2 3 2 2 2 2 1 0 0 1 1 2 2 3 4 5 5 6 6 7 7 7 7 8 8 8 8 7 7 8 8 8 8 8 8 9
2 2 1 1 1 2 2 2 2 2 2 1 1 1 1 0 1 1 1 2 3 3 4 5 6 6 7 7 7 7 8 8 8 7 7 7 7 8 8 8 8 8 8
2 2 1 1 2 2 1 1 1 1 1 1 1 1 1 1 1 1 1 2 2 3 4 5 5 5 5 5 6 6 6 6 6 7 8 8 7 8 8 8 8 8 7
2 2 1 1 2 1 1 1 1 1 1 1 2 2 2 1 1 1 1 1 1 2 3 3 4 5 6 6 7 7 7 6 6 6 7 7 6 7 7 7 7 7 8
2 2 1 1 1 1 0 0 1 1 1 1 1 2 3 2 2 1 1 1 1 2 2 2 3 3 4 5 6 7 7 7 6 6 7 7 7 7 7 7 7 7 8
1 1 1 1 1 1 1 1 1 1 1 1 1 1 2 3 3 2 1 1 2 2 1 2 2 3 3 3 5 6 6 6 6 7 7 7 7 7 8 8 8 8 9
0 0 1 1 1 1 0 1 0 1 0 1 1 2 1 1 2 2 2 1 2 2 2 2 2 3 3 3 4 5 6 6 6 6 6 6 6 6 7 7 7 7 8
0 0 1 1 1 1 0 1 0 0 1 1 0 0 1 2 1 2 2 2 2 2 2 2 2 2 2 2 3 4 5 6 6 6 6 6 6 6 6 7 7 6 6
1 0 1 1 1 1 1 0 0 0 1 1 1 1 0 0 1 1 3 3 2 2 2 2 2 2 2 3 3 4 5 6 6 6 6 6 6 6 6 7 7 7 7
1 1 1 1 1 1 1 1 1 0 1 1 1 1 1 1 1 1 2 3 3 3 2 2 1 2 2 3 4 5 5 5 5 5 5 6 6 6 6 6 7 7 8
1 2 1 1 1 2 2 1 1 1 1 1 1 1 2 2 2 2 2 2 2 2 2 2 2 2 2 2 3 5 5 5 5 5 5 5 5 5 6 6 7 7 7
2 2 1 1 2 1 1 1 1 1 1 1 1 1 1 1 1 2 2 2 1 2 2 3 2 2 2 2 3 4 4 5 5 5 5 4 4 4 5 5 6 6 6
2 1 1 1 1 1 1 1 1 1 1 1 1 0 1 1 1 2 2 2 2 2 2 2 2 2 3 3 3 3 3 5 5 5 4 4 4 4 4 4 5 6 6
1 1 1 1 1 0 0 1 0 0 0 0 0 0 1 1 1 1 1 1 2 3 2 2 2 3 3 3 3 2 3 4 4 4 4 3 3 3 3 4 5 6 6
2 2 1 1 1 1 0 1 1 0 0 1 1 1 1 1 1 1 1 1 1 2 3 3 2 2 2 3 3 3 3 3 4 4 4 3 3 3 3 4 5 5 5
2 2 2 2 2 1 1 1 1 1 1 1 1 1 2 1 1 1 1 1 2 2 3 3 2 2 2 2 2 2 3 3 3 4 3 3 3 3 3 4 4 4 4
2 2 2 3 3 2 2 2 2 2 2 2 2 2 3 2 2 2 2 2 2 2 2 2 3 2 2 2 2 2 3 3 3 4 3 3 3 3 3 4 3 3 3
3 3 3 3 3 3 3 2 2 2 2 2 3 3 3 3 4 3 2 2 2 1 1 2 2 2 2 2 2 2 3 2 3 3 3 3 3 3 3 4 3 3 2
4 3 3 3 3 3 3 3 3 3 3 3 3 3 4 4 4 4 3 3 2 2 1 1 2 2 2 2 2 2 3 3 3 2 2 3 3 3 3 2 2 2 2
3 3 3 3 3 3 4 5 4 3 3 3 3 4 4 3 3 3 3 3 3 3 3 2 2 3 4 3 3 3 2 2 2 1 2 3 2 3 3 2 2 2 2
3 3 3 3 4 4 4 4 4 3 3 3 3 3 3 3 2 2 2 2 3 4 5 4 4 5 4 4 3 3 2 2 3 2 1 2 2 3 3 3 3 2 2
4 4 4 4 3 4 3 4 3 2 2 3 3 4 3 4 3 2 2 2 3 3 4 4 4 5 5 4 3 3 2 2 2 2 1 2 2 3 3 3 3 2 1
4 4 3 3 3 4 3 3 2 1 2 3 4 4 4 4 4 3 2 3 3 4 3 3 3 3 3 3 2 1 1 1 2 2 1 2 2 2 3 3 2 1 1
4 4 3 3 3 3 3 3 3 2 2 3 3 3 4 4 5 3 2 2 4 4 3 2 2 3 2 1 1 2 3 2 2 2 1 2 2 2 3 2 2 2 1
Wind_Direction
62 53 44 37 33 47 59 57 56 50 45 49 85 130 180 196 180 181 202 214 214 215 222 230 238 244 242 238 230 231 231 233 233 229 231 234 237 240 239 236 236 237 234
79 64 48 35 37 49 63 71 56 48 30 29 27 64 183 178 178 191 209 231 233 231 237 240 243 248 248 245 239 238 238 239 235 228 231 237 239 242 244 241 239 237 234
100 86 66 48 37 52 67 72 55 54 41 37 12 358 336 208 195 215 228 236 248 250 246 249 253 253 254 255 249 246 245 241 236 232 234 237 240 241 243 246 244 240 236
120 104 81 54 59 72 74 75 65 65 49 43 15 344 350 289 228 233 235 240 251 258 261 260 262 262 262 259 255 253 250 247 241 237 237 239 242 243 243 242 241 241 239
122 128 113 67 69 75 66 80 82 100 75 28 16 1 345 324 286 266 257 259 255 255 262 268 274 272 269 264 260 259 261 254 243 240 240 241 244 245 246 245 242 239 238
124 131 108 54 67 68 46 56 76 55 60 23 34 16 356 345 349 331 276 279 272 266 267 267 275 282 279 271 270 267 265 256 247 244 243 241 239 239 240 240 238 234 231
101 122 102 74 75 77 47 58 96 56 23 17 52 16 9 13 14 348 320 304 291 279 273 266 266 273 283 282 281 277 273 265 254 250 250 248 246 241 237 237 235 232 230
77 135 119 101 80 74 38 32 79 88 10 38 95 70 353 353 5 358 356 343 326 317 307 294 276 263 272 281 285 286 281 274 261 257 256 251 252 247 241 239 235 231 230
331 145 134 139 105 111 71 312 262 152 216 9 81 145 153 261 317 341 350 346 334 327 313 308 296 280 277 279 286 291 286 282 279 276 266 254 252 248 243 240 235 233 230
343 171 159 154 148 138 177 277 306 213 177 271 339 69 189 189 205 306 328 342 338 330 322 315 314 316 301 286 282 290 290 289 288 285 278 272 262 254 245 242 240 233 225
322 287 191 163 162 182 216 264 36 91 173 212 221 219 187 88 204 227 290 316 329 323 322 307 304 312 309 292 291 294 292 293 292 286 281 278 270 264 257 247 241 239 232
306 302 226 179 194 214 235 246 221 202 223 219 220 204 193 192 208 208 248 287 301 305 317 317 294 293 294 293 296 299 298 298 292 287 284 281 273 268 269 258 251 244 236
275 271 252 223 224 229 232 224 227 263 251 243 237 228 214 218 191 183 208 263 291 305 310 301 284 287 297 304 301 303 308 303 301 298 289 281 275 269 266 263 258 252 245
251 254 241 241 251 250 239 211 233 259 269 259 266 249 230 226 190 190 192 194 282 309 317 299 311 298 303 301 293 299 313 314 310 304 297 290 279 271 267 265 261 255 249
243 243 244 249 252 236 225 195 198 257 279 283 285 288 263 258 224 216 205 200 199 265 298 295 301 303 297 301 302 305 306 314 312 307 299 292 277 273 270 271 269 258 250
226 221 250 253 260 268 147 148 201 271 90 328 281 245 304 303 285 222 210 215 210 216 256 277 275 298 303 310 325 321 310 320 323 315 301 290 282 272 267 267 270 259 252
202 206 223 237 231 239 235 162 214 160 158 322 328 325 308 300 290 277 228 207 209 210 244 280 278 297 304 311 325 330 325 322 321 320 305 296 289 278 268 265 265 261 256
211 210 207 220 235 246 241 206 232 226 223 248 266 279 297 300 289 263 235 226 231 225 230 271 287 297 296 299 303 316 324 327 325 323 315 305 294 283 277 273 268 263 253
212 216 212 222 234 238 232 226 232 240 235 243 252 256 266 263 271 264 252 256 255 250 240 253 278 288 294 313 318 323 324 324 323 322 323 323 305 292 284 277 269 265 249
209 221 224 229 233 232 226 230 233 236 241 253 258 255 254 245 248 250 251 250 251 263 272 264 277 289 292 306 317 316 324 333 329 334 341 337 324 313 296 284 274 264 241
220 219 222 235 237 231 236 237 232 234 239 257 271 271 266 257 252 248 247 236 225 234 247 268 283 290 296 309 300 294 293 309 323 328 332 338 330 326 316 293 270 259 236
220 214 224 234 242 249 243 232 227 233 237 246 265 280 281 277 279 270 258 236 216 220 232 242 263 272 276 280 283 283 292 307 313 313 312 319 330 319 317 309 286 257 241
209 217 227 231 246 253 244 237 229 230 242 251 259 270 282 290 281 276 282 267 249 237 223 222 242 257 261 256 258 278 272 269 278 298 293 302 316 306 310 306 296 278 256
206 216 225 233 243 258 246 235 231 232 252 263 264 259 259 273 274 268 275 285 283 274 249 236 237 251 259 251 235 238 247 274 292 297 255 279 307 306 318 316 300 275 245
211 216 220 225 234 260 250 227 211 233 262 273 272 264 258 262 270 262 256 275 290 292 279 256 257 269 273 255 217 187 207 253 295 300 278 271 297 315 319 312 323 324 324
217 217 226 229 229 246 247 221 192 205 248 272 280 274 263 262 272 258 233 247 271 281 290 296 299 309 295 261 192 202 212 233 278 285 272 265 283 298 305 314 317 325 326
Height
1535 1535 1536 1537 1537 1538 1538 1538 1539 1539 1540 1540 1541 1541 1542 1543 1543 1544 1544 1545 1545 1546 1546 1546 1546 1546 1546 1547 1547 1547 1548 1548 1548 1548 1549 1549 1549 1550 1550 1550 1551 1552 1553
1537 1537 1538 1539 1539 1539 1539 1540 1540 1540 1541 1541 1541 1542 1543 1543 1543 1544 1544 1544 1545 1545 1545 1545 1545 1545 1545 1545 1545 1546 1546 1546 1546 1546 1546 1547 1547 1547 1547 1548 1548 1549 1549
1539 1540 1540 1540 1540 1541 1541 1541 1541 1541 1541 1541 1542 1542 1543 1543 1543 1543 1544 1544 1544 1544 1544 1544 1544 1544 1544 1544 1544 1544 1544 1544 1544 1544 1544 1544 1544 1544 1544 1545 1545 1546 1546
1541 1541 1541 1541 1542 1542 1542 1542 1541 1541 1542 1542 1542 1542 1542 1542 1543 1543 1543 1543 1543 1543 1543 1543 1543 1543 1543 1543 1542 1542 1542 1542 1542 1542 1542 1542 1541 1541 1542 1542 1542 1542 1543
1543 1543 1542 1543 1543 1543 1542 1542 1542 1542 1542 1542 1542 1542 1542 1542 1542 1542 1542 1542 1542 1542 1542 1542 1542 1542 1541 1541 1541 1540 1540 1540 1539 1539 1539 1539 1539 1539 1539 1539 1539 1540 1540
1544 1544 1544 1544 1544 1543 1543 1543 1542 1542 1542 1542 1541 1541 1541 1541 1541 1541 1541 1541 1541 1541 1541 1541 1541 1540 1540 1539 1539 1538 1538 1538 1537 1537 1537 1536 1536 1536 1536 1536 1536 1537 1537
1545 1545 1545 1545 1544 1544 1543 1543 1542 1542 1542 1542 1541 1541 1540 1540 1540 1540 1540 1540 1540 1539 1539 1539 1539 1539 1538 1538 1537 1537 1536 1536 1535 1534 1534 1533 1533 1533 1533 1533 1534 1534 1534
1545 1546 1546 1545 1545 1544 1544 1543 1542 1542 1541 1541 1541 1540 1539 1540 1539 1539 1539 1538 1538 1538 1538 1537 1537 1537 1536 1535 1535 1534 1534 1533 1533 1532 1531 1531 1530 1530 1530 1530 1531 1531 1532
1545 1546 1545 1545 1545 1544 1544 1543 1542 1541 1541 1541 1540 1540 1540 1539 1538 1538 1538 1537 1537 1536 1536 1536 1535 1535 1534 1533 1533 1532 1531 1531 1530 1529 1529 1528 1527 1527 1527 1527 1528 1528 1528
1545 1545 1545 1545 1545 1544 1543 1542 1542 1541 1540 1540 1539 1539 1539 1539 1538 1537 1537 1536 1535 1535 1534 1534 1533 1533 1532 1531 1531 1530 1529 1528 1527 1527 1526 1525 1525 1524 1524 1525 1525 1525 1525
1545 1545 1545 1544 1544 1543 1543 1542 1541 1541 1540 1539 1538 1538 1537 1537 1537 1536 1535 1534 1533 1533 1532 1532 1531 1530 1530 1529 1529 1528 1527 1526 1525 1524 1523 1523 1522 1522 1522 1522 1521 1521 1521
1544 1544 1544 1544 1543 1543 1542 1541 1540 1540 1539 1538 1537 1537 1536 1536 1535 1535 1534 1532 1531 1531 1530 1530 1529 1529 1528 1528 1527 1526 1524 1523 1522 1521 1521 1520 1519 1519 1518 1518 1518 1518 1518
1543 1543 1543 1542 1542 1541 1541 1540 1539 1538 1538 1537 1536 1535 1535 1534 1534 1533 1532 1531 1530 1529 1529 1528 1528 1527 1526 1525 1524 1523 1522 1521 1520 1519 1518 1517 1516 1515 1515 1515 1515 1515 1516
1542 1542 1542 1541 1541 1540 1539 1538 1538 1537 1536 1535 1535 1534 1533 1533 1532 1532 1531 1530 1528 1528 1527 1526 1526 1525 1524 1523 1522 1521 1519 1518 1517 1516 1515 1514 1513 1513 1512 1512 1512 1512 1512
1541 1541 1541 1540 1539 1538 1538 1537 1536 1535 1535 1534 1533 1532 1531 1531 1530 1530 1529 1529 1529 1526 1525 1524 1524 1523 1522 1521 1519 1518 1517 1516 1515 1514 1513 1512 1511 1510 1510 1509 1509 1509 1509
1539 1539 1539 1538 1538 1537 1536 1535 1535 1534 1533 1532 1531 1530 1530 1529 1528 1528 1527 1526 1526 1525 1524 1522 1522 1521 1520 1519 1517 1516 1515 1514 1513 1511 1510 1509 1508 1508 1507 1506 1506 1506 1506
1537 1537 1537 1537 1536 1535 1534 1534 1533 1532 1531 1530 1529 1528 1528 1527 1526 1525 1525 1524 1523 1523 1521 1520 1520 1519 1518 1517 1515 1514 1513 1511 1510 1509 1508 1507 1506 1505 1504 1504 1503 1503 1503
1536 1536 1535 1535 1534 1534 1533 1532 1531 1530 1529 1529 1528 1527 1526 1525 1524 1523 1523 1522 1521 1520 1519 1518 1517 1516 1515 1514 1513 1512 1511 1510 1508 1507 1505 1504 1503 1503 1502 1501 1500 1500 1500
1533 1533 1533 1533 1532 1532 1531 1530 1529 1529 1528 1527 1526 1525 1524 1523 1522 1521 1521 1520 1519 1518 1517 1516 1514 1514 1513 1512 1511 1509 1508 1507 1506 1505 1503 1502 1501 1500 1499 1498 1497 1497 1496
1530 1530 1530 1530 1530 1529 1528 1528 1527 1526 1525 1524 1524 1523 1522 1521 1520 1519 1518 1517 1517 1516 1515 1514 1512 1511 1510 1509 1508 1506 1505 1504 1503 1502 1500 1499 1498 1497 1496 1495 1494 1494 1493
1527 1527 1527 1527 1526 1526 1525 1525 1524 1524 1523 1522 1521 1520 1519 1519 1518 1517 1516 1515 1514 1513 1512 1511 1510 1509 1507 1506 1505 1503 1502 1501 1499 1499 1497 1496 1495 1494 1493 1492 1491 1491 1490
1524 1524 1524 1524 1523 1523 1522 1522 1522 1521 1520 1519 1518 1518 1517 1516 1515 1514 1513 1512 1512 1510 1509 1508 1507 1506 1504 1504 1502 1501 1500 1498 1496 1496 1495 1494 1493 1492 1491 1490 1489 1488 1487
1521 1521 1521 1520 1520 1520 1519 1519 1519 1518 1517 1516 1515 1515 1514 1513 1513 1511 1510 1509 1508 1507 1507 1506 1504 1503 1502 1501 1500 1498 1497 1496 1494 1494 1493 1491 1491 1490 1489 1487 1486 1485 1485
1517 1517 1517 1517 1517 1516 1516 1516 1516 1515 1514 1513 1512 1512 1511 1510 1510 1508 1507 1506 1505 1504 1504 1503 1502 1501 1500 1499 1497 1496 1495 1493 1492 1492 1491 1489 1488 1487 1486 1485 1484 1483 1482
1514 1514 1514 1514 1513 1513 1513 1513 1512 1512 1511 1510 1510 1509 1508 1507 1506 1505 1504 1503 1502 1501 1501 1500 1499 1498 1497 1496 1495 1493 1492 1491 1489 1489 1488 1487 1486 1485 1483 1482 1481 1479 1479
1511 1511 1511 1510 1510 1510 1510 1509 1509 1508 1507 1507 1506 1506 1505 1504 1503 1502 1501 1500 1499 1498 1498 1497 1497 1496 1494 1493 1492 1491 1490 1489 1487 1486 1485 1485 1483 1482 1480 1479 1478 1477 1476